This is the latest recevied weather packets stored in our database for station/object N5PRN. If no packets are shown the sender has not sent any weather packets the latest 10 day(s).
| Time | Temp. | Humidity | Pressure | Rain* | Wind** | Luminosity | Snow |
|---|---|---|---|---|---|---|---|
| 1778114620 | 17.22° C | 99% | 1011.5 hPa | 11.94 mm | - | 0 W/m² | - |
| 1778114317 | 17.22° C | 99% | 1010.8 hPa | 10.67 mm | - | 3 W/m² | - |
| 1778114012 | 17.22° C | 99% | 1010.6 hPa | 6.1 mm | - | 2 W/m² | - |
| 1778113707 | 17.78° C | 99% | 1010.6 hPa | 1.27 mm | - | 5 W/m² | - |
| 1778113403 | 17.78° C | 99% | 1010.3 hPa | 0 mm | - | 4 W/m² | - |
| 1778113101 | 17.78° C | 99% | 1010 hPa | 0 mm | - | 11 W/m² | - |
| 1778112798 | 18.33° C | 99% | 1009.8 hPa | 0 mm | - | 12 W/m² | - |
| 1778112494 | 18.33° C | 99% | 1009.3 hPa | 0 mm | - | 18 W/m² | - |
| 1778112190 | 18.33° C | 99% | 1009.8 hPa | 0 mm | - | 12 W/m² | - |
| 1778111886 | 18.89° C | 99% | 1009.8 hPa | 1.78 mm | - | 12 W/m² | - |
| 1778111582 | 18.89° C | 99% | 1009.9 hPa | 1.78 mm | - | 16 W/m² | - |
| 1778111273 | 19.44° C | 99% | 1009.7 hPa | 0 mm | - | 13 W/m² | - |
| 1778110971 | 20° C | 99% | 1009.8 hPa | 1.78 mm | - | 10 W/m² | - |
| 1778110669 | 20.56° C | 99% | 1009.8 hPa | 1.78 mm | - | 8 W/m² | - |
| 1778110365 | 21.11° C | 99% | 1009.7 hPa | 0 mm | - | 7 W/m² | - |
| 1778110062 | 21.67° C | 99% | 1009.9 hPa | 0 mm | - | 24 W/m² | - |
| 1778109762 | 22.22° C | 99% | 1009.5 hPa | 0 mm | - | 45 W/m² | - |
| 1778109459 | 22.78° C | 99% | 1009.7 hPa | 1.27 mm | - | 19 W/m² | - |
| 1778109158 | 22.78° C | 99% | 1009.4 hPa | 3.05 mm | - | 15 W/m² | - |
| 1778108855 | 23.33° C | 99% | 1009.5 hPa | 4.32 mm | - | 14 W/m² | - |
| 1778108552 | 23.33° C | 99% | 1009.5 hPa | 10.16 mm | - | 7 W/m² | - |
| 1778108248 | 23.33° C | 99% | 1009.2 hPa | 14.99 mm | - | 23 W/m² | - |
| 1778107946 | 23.33° C | 99% | 1009.3 hPa | 8.89 mm | - | 23 W/m² | - |
| 1778107641 | 23.89° C | 99% | 1009.4 hPa | 1.27 mm | - | 17 W/m² | - |
| 1778107339 | 23.89° C | 99% | 1009.1 hPa | 0 mm | - | 12 W/m² | - |
* Rain latest hour (hover to see other rain measurements)
** Current wind speed in m/s (hover to see current wind gust speed)